7 * 24
多渠道服务支持
NAVSTAR 31(USA 90)是美国空军运营的一颗GPS IIIA系列导航卫星,于2020年12月由联合发射联盟(ULA)的Atlas V火箭从佛罗里达州卡纳维拉尔角发射升空。该卫星是GPS现代化计划的一部分,提供更精确的定位、导航和授时服务。它运行在中地球轨道,设计寿命为15年,并具备增强的抗干扰能力和更长的在轨寿命。NAVSTAR 31的部署增强了全球定位系统的可靠性和覆盖范围,支持军事和民用用户。
美国
(US)
| 数据来源 | 国际轨道数据 |
| 星历时间: | 2026-03-02T01:09:13+0800 1天前 查看轨道信息 |
| 半长轴: | 27638.17km |
| 偏心率: | 0.0003 |
| 轨道倾角: | 54.234° |
| 近地点辐角 | 84.220° |
| 升交点赤经 | 302.027° |
| 平近点角 | 90.343° |
| 近地点: | 21251.741km |
| 远地点: | 21268.325km |
| 周期: | 762.120分钟 |
| 每日圈数: | 1.889465 |